| time (UTC) | temp C | wind direction | speed KPH | gust KPH | rain 1hr cm | rain 24hr cm | rain mn cm | humidity % | barometer mb |
| 20260503051440 | 2 | 354 | 0.0 | 0.0 | 0.00 | 0.00 | 0.00 | 81 | 1011.6 |
| 20260503050938 | 2 | 356 | 0.0 | 0.0 | 0.00 | 0.00 | 0.00 | 81 | 1011.8 |
| 20260503050433 | 1 | 357 | 0.0 | 0.0 | 0.00 | 0.00 | 0.00 | 82 | 1011.6 |
| 20260503045932 | 1 | 352 | 0.0 | 0.0 | 0.00 | 0.00 | 0.00 | 82 | 1011.6 |
| 20260503045429 | 1 | 0 | 0.0 | 0.0 | 0.00 | 0.00 | 0.00 | 83 | 1011.6 |
| 20260503044925 | 1 | 353 | 0.0 | 0.0 | 0.00 | 0.00 | 0.00 | 84 | 1011.7 |
| 20260503044422 | 1 | 353 | 0.0 | 0.0 | 0.00 | 0.00 | 0.00 | 83 | 1011.9 |
| 20260503043920 | 2 | 354 | 0.0 | 0.0 | 0.00 | 0.00 | 0.00 | 83 | 1011.6 |
| 20260503043416 | 2 | 354 | 0.0 | 0.0 | 0.00 | 0.00 | 0.00 | 83 | 1011.8 |
| 20260503042913 | 2 | 358 | 0.0 | 0.0 | 0.00 | 0.00 | 0.00 | 82 | 1011.7 |
| 20260503042409 | 2 | 358 | 0.0 | 0.0 | 0.00 | 0.00 | 0.00 | 82 | 1011.9 |
| 20260503041906 | 2 | 351 | 0.0 | 0.0 | 0.00 | 0.00 | 0.00 | 81 | 1011.7 |
| 20260503041403 | 2 | 351 | 0.0 | 0.0 | 0.00 | 0.00 | 0.00 | 81 | 1011.9 |
| 20260503040900 | 2 | 351 | 0.0 | 0.0 | 0.00 | 0.00 | 0.00 | 80 | 1011.8 |
| 20260503040358 | 2 | 352 | 0.0 | 0.0 | 0.00 | 0.00 | 0.00 | 79 | 1011.9 |
| 20260503035854 | 2 | 352 | 0.0 | 0.0 | 0.00 | 0.08 | 0.08 | 78 | 1012.0 |
| 20260503035351 | 2 | 350 | 0.0 | 0.0 | 0.00 | 0.08 | 0.08 | 77 | 1012.2 |
| 20260503034848 | 3 | 352 | 0.0 | 0.0 | 0.00 | 0.08 | 0.08 | 77 | 1011.9 |
| 20260503034346 | 3 | 353 | 0.0 | 0.0 | 0.00 | 0.08 | 0.08 | 76 | 1012.2 |
| 20260503033843 | 3 | 344 | 0.0 | 0.0 | 0.00 | 0.08 | 0.08 | 76 | 1012.1 |
| 20260503033341 | 3 | 345 | 0.0 | 0.0 | 0.00 | 0.08 | 0.08 | 76 | 1011.9 |
| 20260503032838 | 3 | 345 | 0.0 | 0.0 | 0.00 | 0.08 | 0.08 | 76 | 1011.9 |
| 20260503032337 | 3 | 341 | 0.0 | 0.0 | 0.00 | 0.08 | 0.08 | 76 | 1011.9 |
| 20260503031834 | 3 | 342 | 0.0 | 0.0 | 0.00 | 0.08 | 0.08 | 75 | 1011.9 |
| 20260503031332 | 3 | 342 | 0.0 | 0.0 | 0.00 | 0.08 | 0.08 | 74 | 1012.0 |
| 20260503030828 | 3 | 342 | 0.0 | 0.0 | 0.00 | 0.08 | 0.08 | 73 | 1012.2 |
| 20260503030325 | 4 | 342 | 0.0 | 0.0 | 0.00 | 0.08 | 0.08 | 73 | 1012.2 |
| 20260503025821 | 4 | 342 | 0.0 | 0.0 | 0.00 | 0.08 | 0.08 | 72 | 1012.1 |
| 20260503025319 | 5 | 342 | 0.0 | 0.0 | 0.00 | 0.08 | 0.08 | 71 | 1012.3 |
| 20260503024815 | 5 | 342 | 0.0 | 0.0 | 0.00 | 0.08 | 0.08 | 70 | 1012.2 |
| 20260503024312 | 5 | 342 | 0.0 | 0.0 | 0.00 | 0.08 | 0.08 | 70 | 1012.2 |
| 20260503023809 | 5 | 344 | 0.0 | 0.0 | 0.00 | 0.08 | 0.08 | 69 | 1012.1 |
| 20260503023306 | 5 | 342 | 0.0 | 0.0 | 0.00 | 0.08 | 0.08 | 69 | 1012.3 |
| 20260503022802 | 5 | 345 | 0.0 | 0.0 | 0.00 | 0.08 | 0.08 | 68 | 1012.3 |
| 20260503022257 | 5 | 344 | 0.0 | 0.0 | 0.00 | 0.08 | 0.08 | 69 | 1012.2 |
| 20260503021754 | 5 | 349 | 0.0 | 0.0 | 0.00 | 0.08 | 0.08 | 70 | 1012.4 |
| 20260503021250 | 5 | 354 | 0.0 | 0.0 | 0.00 | 0.08 | 0.08 | 69 | 1012.4 |
| 20260503020748 | 5 | 6 | 0.0 | 0.0 | 0.00 | 0.08 | 0.08 | 69 | 1012.6 |
| 20260503020245 | 5 | 349 | 0.0 | 0.0 | 0.00 | 0.08 | 0.08 | 71 | 1012.4 |
| 20260503015741 | 4 | 349 | 0.0 | 0.0 | 0.00 | 0.08 | 0.08 | 71 | 1012.4 |
| 20260503015238 | 4 | 349 | 0.0 | 0.0 | 0.00 | 0.08 | 0.08 | 72 | 1012.4 |
| 20260503014734 | 4 | 349 | 0.0 | 0.0 | 0.00 | 0.08 | 0.08 | 71 | 1012.6 |
| 20260503014232 | 4 | 349 | 0.0 | 0.0 | 0.00 | 0.08 | 0.08 | 70 | 1012.4 |
| 20260503013729 | 4 | 351 | 0.0 | 0.0 | 0.00 | 0.08 | 0.08 | 70 | 1012.5 |
| 20260503013227 | 5 | 353 | 0.0 | 0.0 | 0.00 | 0.08 | 0.08 | 70 | 1012.5 |
| 20260503012724 | 5 | 353 | 0.0 | 0.0 | 0.00 | 0.08 | 0.08 | 68 | 1012.6 |
| 20260503012221 | 5 | 351 | 0.0 | 0.0 | 0.00 | 0.08 | 0.08 | 68 | 1012.6 |
| 20260503011717 | 5 | 341 | 0.0 | 0.0 | 0.00 | 0.08 | 0.08 | 69 | 1012.5 |
| 20260503011215 | 5 | 341 | 0.0 | 0.0 | 0.00 | 0.08 | 0.08 | 67 | 1012.5 |
| 20260503010710 | 5 | 352 | 0.0 | 0.0 | 0.00 | 0.08 | 0.08 | 66 | 1012.4 |
| 20260503010208 | 5 | 338 | 0.0 | 0.0 | 0.00 | 0.08 | 0.08 | 66 | 1012.2 |
| 20260503005705 | 5 | 338 | 0.0 | 0.0 | 0.00 | 0.08 | 0.08 | 66 | 1012.2 |
| 20260503005202 | 5 | 339 | 0.0 | 0.0 | 0.00 | 0.08 | 0.08 | 66 | 1012.3 |
| 20260503004658 | 6 | 339 | 0.0 | 0.0 | 0.00 | 0.08 | 0.08 | 64 | 1012.1 |
| 20260503004157 | 6 | 339 | 0.0 | 0.0 | 0.00 | 0.08 | 0.08 | 63 | 1012.1 |
| 20260503003654 | 6 | 338 | 0.0 | 0.0 | 0.00 | 0.08 | 0.08 | 61 | 1012.1 |
| 20260503003151 | 6 | 340 | 0.0 | 0.0 | 0.00 | 0.08 | 0.08 | 60 | 1012.0 |
| 20260503002647 | 7 | 336 | 0.0 | 1.6 | 0.00 | 0.08 | 0.08 | 58 | 1012.1 |
| 20260503002144 | 7 | 347 | 0.0 | 0.0 | 0.00 | 0.08 | 0.08 | 58 | 1012.1 |
| 20260503001640 | 7 | 331 | 0.0 | 1.6 | 0.00 | 0.08 | 0.08 | 59 | 1011.8 |
| 20260503001137 | 7 | 337 | 0.0 | 0.0 | 0.00 | 0.08 | 0.08 | 58 | 1011.9 |
| 20260503000635 | 7 | 354 | 0.0 | 0.0 | 0.00 | 0.08 | 0.08 | 57 | 1011.8 |
| 20260503000132 | 7 | 308 | 1.6 | 1.6 | 0.00 | 0.08 | 0.08 | 57 | 1011.8 |
| 20260502235628 | 7 | 343 | 1.6 | 1.6 | 0.00 | 0.08 | 0.08 | 57 | 1011.9 |
| 20260502235127 | 7 | 339 | 0.0 | 0.0 | 0.00 | 0.08 | 0.08 | 56 | 1012.0 |
| 20260502234622 | 8 | 343 | 0.0 | 0.0 | 0.00 | 0.08 | 0.08 | 55 | 1011.8 |
| 20260502234120 | 8 | 330 | 0.0 | 1.6 | 0.00 | 0.08 | 0.08 | 55 | 1012.0 |
| 20260502233615 | 8 | 194 | 1.6 | 1.6 | 0.00 | 0.08 | 0.08 | 53 | 1011.7 |
| 20260502233113 | 8 | 18 | 0.0 | 0.0 | 0.00 | 0.08 | 0.08 | 52 | 1011.6 |
| 20260502232608 | 8 | 303 | 0.0 | 1.6 | 0.00 | 0.08 | 0.08 | 51 | 1011.6 |
| 20260502232106 | 8 | 337 | 0.0 | 0.0 | 0.00 | 0.08 | 0.08 | 50 | 1011.8 |
| 20260502231603 | 9 | 326 | 1.6 | 3.2 | 0.00 | 0.08 | 0.08 | 50 | 1011.7 |
| 20260502231101 | 9 | 6 | 0.0 | 0.0 | 0.00 | 0.08 | 0.08 | 51 | 1011.6 |
| 20260502230559 | 10 | 7 | 0.0 | 1.6 | 0.00 | 0.08 | 0.08 | 50 | 1011.6 |
| 20260502230057 | 10 | 11 | 0.0 | 0.0 | 0.00 | 0.08 | 0.08 | 48 | 1011.5 |
| 20260502225552 | 10 | 344 | 0.0 | 0.0 | 0.00 | 0.08 | 0.08 | 49 | 1011.6 |
| 20260502225050 | 10 | 355 | 1.6 | 3.2 | 0.00 | 0.08 | 0.08 | 49 | 1011.5 |
| 20260502224545 | 10 | 352 | 0.0 | 1.6 | 0.00 | 0.08 | 0.08 | 47 | 1011.5 |
| 20260502224043 | 11 | 336 | 0.0 | 1.6 | 0.00 | 0.08 | 0.08 | 46 | 1011.3 |
| 20260502223540 | 11 | 292 | 1.6 | 4.8 | 0.00 | 0.08 | 0.08 | 45 | 1011.4 |
| 20260502223039 | 11 | 36 | 1.6 | 3.2 | 0.00 | 0.08 | 0.08 | 44 | 1011.2 |
| 20260502222535 | 11 | 329 | 0.0 | 1.6 | 0.00 | 0.08 | 0.08 | 45 | 1011.2 |
| 20260502222032 | 11 | 279 | 1.6 | 3.2 | 0.00 | 0.08 | 0.08 | 44 | 1011.0 |
| 20260502221527 | 11 | 275 | 3.2 | 8.0 | 0.00 | 0.08 | 0.08 | 43 | 1011.2 |
| 20260502221025 | 12 | 48 | 3.2 | 8.0 | 0.00 | 0.08 | 0.08 | 42 | 1011.1 |
| 20260502220520 | 12 | 318 | 3.2 | 3.2 | 0.00 | 0.08 | 0.08 | 42 | 1011.3 |
| 20260502220018 | 12 | 138 | 3.2 | 4.8 | 0.00 | 0.08 | 0.08 | 43 | 1011.1 |
| 20260502215515 | 12 | 342 | 1.6 | 3.2 | 0.00 | 0.08 | 0.08 | 41 | 1011.2 |
| 20260502215012 | 12 | 328 | 1.6 | 1.6 | 0.00 | 0.08 | 0.08 | 40 | 1011.1 |
| 20260502214509 | 12 | 300 | 4.8 | 4.8 | 0.00 | 0.08 | 0.08 | 39 | 1010.8 |
| 20260502214006 | 12 | 246 | 3.2 | 4.8 | 0.00 | 0.08 | 0.08 | 39 | 1011.2 |
| 20260502213503 | 12 | 246 | 1.6 | 3.2 | 0.00 | 0.08 | 0.08 | 42 | 1011.2 |
| 20260502213001 | 12 | 351 | 0.0 | 1.6 | 0.00 | 0.08 | 0.08 | 42 | 1011.0 |
| 20260502212459 | 12 | 179 | 3.2 | 3.2 | 0.00 | 0.08 | 0.08 | 42 | 1011.3 |
| 20260502211956 | 12 | 139 | 3.2 | 3.2 | 0.00 | 0.08 | 0.08 | 43 | 1011.0 |
| 20260502211452 | 12 | 276 | 0.0 | 0.0 | 0.00 | 0.08 | 0.08 | 45 | 1010.9 |
| 20260502210950 | 12 | 204 | 1.6 | 3.2 | 0.00 | 0.08 | 0.08 | 44 | 1010.9 |
| 20260502210446 | 11 | 359 | 1.6 | 1.6 | 0.00 | 0.08 | 0.08 | 44 | 1010.7 |
| 20260502205943 | 12 | 171 | 1.6 | 3.2 | 0.00 | 0.08 | 0.08 | 44 | 1011.0 |
| 20260502205439 | 11 | 294 | 1.6 | 1.6 | 0.00 | 0.08 | 0.08 | 45 | 1010.9 |
| 20260502204937 | 11 | 170 | 6.4 | 9.7 | 0.00 | 0.08 | 0.08 | 45 | 1010.9 |
| 20260502204433 | 12 | 318 | 1.6 | 1.6 | 0.00 | 0.08 | 0.08 | 45 | 1010.8 |
| 20260502203932 | 12 | 315 | 1.6 | 3.2 | 0.00 | 0.08 | 0.08 | 44 | 1010.9 |
| 20260502203429 | 12 | 291 | 1.6 | 4.8 | 0.00 | 0.08 | 0.08 | 44 | 1010.8 |
| 20260502202924 | 12 | 280 | 4.8 | 4.8 | 0.00 | 0.08 | 0.08 | 42 | 1010.9 |
| 20260502202421 | 12 | 274 | 4.8 | 8.0 | 0.00 | 0.08 | 0.08 | 44 | 1010.9 |
| 20260502201920 | 13 | 335 | 4.8 | 4.8 | 0.00 | 0.08 | 0.08 | 43 | 1010.9 |
| 20260502201415 | 12 | 260 | 3.2 | 3.2 | 0.00 | 0.08 | 0.08 | 44 | 1010.6 |
| 20260502200912 | 12 | 259 | 1.6 | 1.6 | 0.00 | 0.08 | 0.08 | 46 | 1011.0 |
| 20260502200408 | 12 | 346 | 1.6 | 1.6 | 0.00 | 0.08 | 0.08 | 45 | 1011.0 |
| 20260502195906 | 13 | 169 | 1.6 | 1.6 | 0.00 | 0.08 | 0.08 | 43 | 1011.0 |
| 20260502195403 | 14 | 249 | 3.2 | 4.8 | 0.00 | 0.08 | 0.08 | 42 | 1010.9 |
| 20260502194859 | 13 | 305 | 3.2 | 3.2 | 0.00 | 0.08 | 0.08 | 43 | 1010.8 |
| 20260502194356 | 13 | 303 | 3.2 | 3.2 | 0.00 | 0.08 | 0.08 | 44 | 1010.9 |
| 20260502193852 | 14 | 283 | 4.8 | 8.0 | 0.00 | 0.08 | 0.08 | 42 | 1010.8 |
| 20260502193349 | 14 | 214 | 1.6 | 1.6 | 0.00 | 0.08 | 0.08 | 43 | 1011.0 |
| 20260502192844 | 14 | 307 | 1.6 | 3.2 | 0.00 | 0.08 | 0.08 | 44 | 1010.8 |
| 20260502192342 | 13 | 298 | 1.6 | 3.2 | 0.00 | 0.08 | 0.08 | 46 | 1011.0 |
| 20260502191839 | 12 | 270 | 3.2 | 4.8 | 0.00 | 0.08 | 0.08 | 46 | 1011.0 |
| 20260502191337 | 12 | 323 | 1.6 | 3.2 | 0.00 | 0.08 | 0.08 | 49 | 1011.1 |
| 20260502190834 | 12 | 310 | 3.2 | 3.2 | 0.00 | 0.08 | 0.08 | 49 | 1011.0 |
| 20260502190331 | 12 | 352 | 0.0 | 0.0 | 0.00 | 0.08 | 0.08 | 48 | 1011.0 |
| 20260502185827 | 13 | 325 | 1.6 | 1.6 | 0.00 | 0.08 | 0.08 | 45 | 1010.9 |
| 20260502185322 | 12 | 247 | 1.6 | 1.6 | 0.00 | 0.08 | 0.08 | 48 | 1010.9 |
| 20260502184820 | 13 | 154 | 1.6 | 1.6 | 0.00 | 0.08 | 0.08 | 48 | 1011.0 |
| 20260502184315 | 15 | 332 | 4.8 | 4.8 | 0.00 | 0.08 | 0.08 | 46 | 1011.0 |
| 20260502183812 | 14 | 357 | 6.4 | 9.7 | 0.00 | 0.08 | 0.08 | 46 | 1010.8 |
| 20260502183308 | 15 | 281 | 4.8 | 4.8 | 0.00 | 0.08 | 0.08 | 43 | 1010.8 |
| 20260502182803 | 15 | 297 | 3.2 | 3.2 | 0.00 | 0.08 | 0.08 | 45 | 1010.9 |
| 20260502182259 | 13 | 63 | 3.2 | 4.8 | 0.00 | 0.08 | 0.08 | 47 | 1010.8 |
| 20260502181755 | 14 | 13 | 1.6 | 3.2 | 0.00 | 0.08 | 0.08 | 49 | 1011.1 |
| 20260502181249 | 14 | 330 | 3.2 | 3.2 | 0.00 | 0.08 | 0.08 | 46 | 1011.0 |
| 20260502180747 | 14 | 344 | 1.6 | 1.6 | 0.00 | 0.08 | 0.08 | 48 | 1011.1 |
| 20260502180244 | 15 | 292 | 1.6 | 1.6 | 0.00 | 0.08 | 0.08 | 50 | 1011.0 |
| 20260502170208 | 13 | 280 | 1.6 | 1.6 | 0.00 | 0.08 | 0.08 | 54 | 1011.3 |
| 20260502164155 | 11 | 22 | 3.2 | 4.8 | 0.00 | 0.08 | 0.08 | 60 | 1011.6 |
| 20260502163650 | 11 | 327 | 0.0 | 1.6 | 0.00 | 0.08 | 0.08 | 63 | 1011.7 |
| 20260502163147 | 11 | 3 | 0.0 | 1.6 | 0.00 | 0.08 | 0.08 | 60 | 1011.6 |
| 20260502162644 | 12 | 293 | 3.2 | 4.8 | 0.00 | 0.08 | 0.08 | 57 | 1011.5 |
| 20260502162141 | 12 | 287 | 3.2 | 3.2 | 0.00 | 0.08 | 0.08 | 57 | 1011.5 |
| 20260502161638 | 13 | 324 | 1.6 | 3.2 | 0.00 | 0.08 | 0.08 | 57 | 1011.5 |
| 20260502161135 | 13 | 276 | 4.8 | 4.8 | 0.00 | 0.08 | 0.08 | 56 | 1011.6 |
| 20260502160633 | 12 | 328 | 1.6 | 3.2 | 0.00 | 0.08 | 0.08 | 61 | 1011.4 |
| 20260502160131 | 11 | 309 | 1.6 | 1.6 | 0.00 | 0.08 | 0.08 | 60 | 1011.6 |
| 20260502152045 | 11 | 315 | 3.2 | 3.2 | 0.00 | 0.08 | 0.08 | 63 | 1011.9 |
| 20260502151543 | 11 | 312 | 1.6 | 1.6 | 0.00 | 0.08 | 0.08 | 64 | 1011.7 |
| 20260502151040 | 11 | 15 | 0.0 | 0.0 | 0.00 | 0.08 | 0.08 | 62 | 1012.0 |
| 20260502150538 | 10 | 163 | 3.2 | 3.2 | 0.00 | 0.08 | 0.08 | 63 | 1011.6 |
| 20260502130422 | 8 | 345 | 1.6 | 3.2 | 0.00 | 0.08 | 0.08 | 82 | 1012.1 |
| 20260502123405 | 7 | 22 | 1.6 | 3.2 | 0.00 | 0.08 | 0.08 | 87 | 1012.1 |
| 20260502122902 | 7 | 291 | 0.0 | 1.6 | 0.00 | 0.08 | 0.08 | 87 | 1011.8 |
| 20260502122358 | 7 | 303 | 0.0 | 0.0 | 0.00 | 0.08 | 0.08 | 88 | 1012.0 |
| 20260502121856 | 7 | 294 | 3.2 | 3.2 | 0.00 | 0.08 | 0.08 | 88 | 1011.8 |
| 20260502121353 | 7 | 334 | 0.0 | 1.6 | 0.00 | 0.08 | 0.08 | 89 | 1011.8 |
| 20260502120851 | 7 | 357 | 0.0 | 1.6 | 0.00 | 0.08 | 0.08 | 90 | 1011.9 |
| 20260502120347 | 7 | 339 | 0.0 | 0.0 | 0.00 | 0.08 | 0.08 | 91 | 1011.9 |
| 20260502115844 | 7 | 59 | 0.0 | 1.6 | 0.00 | 0.08 | 0.08 | 91 | 1012.1 |
| 20260502115342 | 7 | 306 | 3.2 | 3.2 | 0.00 | 0.08 | 0.08 | 91 | 1011.8 |
| 20260502114838 | 7 | 310 | 0.0 | 0.0 | 0.00 | 0.08 | 0.08 | 92 | 1012.0 |
| 20260502114335 | 7 | 358 | 1.6 | 1.6 | 0.00 | 0.08 | 0.08 | 92 | 1012.0 |
| 20260502113832 | 7 | 355 | 1.6 | 1.6 | 0.00 | 0.08 | 0.08 | 92 | 1011.8 |
| 20260502113329 | 7 | 345 | 0.0 | 1.6 | 0.00 | 0.08 | 0.08 | 93 | 1011.9 |
| 20260502112827 | 6 | 350 | 0.0 | 0.0 | 0.00 | 0.08 | 0.08 | 94 | 1011.8 |
| 20260502112324 | 6 | 357 | 0.0 | 0.0 | 0.00 | 0.08 | 0.08 | 94 | 1011.7 |
| 20260502111822 | 6 | 338 | 1.6 | 1.6 | 0.00 | 0.08 | 0.08 | 94 | 1011.5 |
| 20260502111319 | 6 | 337 | 1.6 | 1.6 | 0.00 | 0.08 | 0.08 | 94 | 1011.5 |
| 20260502110817 | 6 | 337 | 1.6 | 1.6 | 0.00 | 0.08 | 0.08 | 95 | 1011.6 |
| 20260502110314 | 6 | 359 | 0.0 | 0.0 | 0.00 | 0.08 | 0.08 | 96 | 1011.6 |
| 20260502105812 | 6 | 356 | 1.6 | 1.6 | 0.00 | 0.08 | 0.08 | 96 | 1011.5 |
| 20260502105308 | 6 | 321 | 0.0 | 0.0 | 0.00 | 0.08 | 0.08 | 97 | 1011.4 |
| 20260502104806 | 6 | 352 | 0.0 | 1.6 | 0.00 | 0.08 | 0.08 | 97 | 1011.4 |
| 20260502104303 | 6 | 349 | 0.0 | 0.0 | 0.00 | 0.08 | 0.08 | 97 | 1011.3 |
| 20260502103800 | 6 | 295 | 0.0 | 0.0 | 0.00 | 0.08 | 0.08 | 97 | 1011.3 |
| 20260502103258 | 6 | 2 | 0.0 | 0.0 | 0.00 | 0.08 | 0.08 | 97 | 1011.3 |
| 20260502102755 | 6 | 351 | 0.0 | 1.6 | 0.00 | 0.08 | 0.08 | 98 | 1011.2 |
| 20260502102251 | 6 | 344 | 0.0 | 0.0 | 0.00 | 0.08 | 0.08 | 99 | 1010.9 |
| 20260502101749 | 6 | 323 | 1.6 | 1.6 | 0.00 | 0.08 | 0.08 | 99 | 1011.2 |
| 20260502101247 | 6 | 331 | 0.0 | 0.0 | 0.00 | 0.08 | 0.08 | 99 | 1011.1 |
| 20260502100745 | 6 | 331 | 0.0 | 0.0 | 0.00 | 0.08 | 0.08 | 99 | 1011.0 |
| 20260502100244 | 6 | 324 | 0.0 | 0.0 | 0.00 | 0.08 | 0.08 | 99 | 1010.9 |
| 20260502091218 | 7 | 355 | 0.0 | 0.0 | 0.00 | 0.08 | 0.08 | 99 | 1010.7 |
| 20260502090715 | 7 | 1 | 0.0 | 0.0 | 0.00 | 0.08 | 0.08 | 99 | 1010.6 |
| 20260502090212 | 7 | 355 | 0.0 | 0.0 | 0.00 | 0.08 | 0.08 | 99 | 1010.8 |
| 20260502071107 | 7 | 353 | 0.0 | 0.0 | 0.00 | 0.08 | 0.08 | 99 | 1010.8 |
| 20260502070605 | 7 | 349 | 0.0 | 0.0 | 0.00 | 0.08 | 0.08 | 99 | 1011.2 |
| 20260502065601 | 7 | 357 | 0.0 | 0.0 | 0.00 | 0.08 | 0.08 | 99 | 1010.9 |
| 20260502065058 | 7 | 344 | 0.0 | 0.0 | 0.00 | 0.08 | 0.08 | 99 | 1011.1 |
| 20260502064557 | 7 | 340 | 0.0 | 0.0 | 0.00 | 0.08 | 0.08 | 99 | 1011.0 |
| 20260502064054 | 7 | 346 | 0.0 | 1.6 | 0.00 | 0.08 | 0.08 | 99 | 1011.0 |
| 20260502063551 | 7 | 7 | 0.0 | 0.0 | 0.00 | 0.08 | 0.08 | 99 | 1010.8 |
| 20260502063049 | 7 | 0 | 0.0 | 0.0 | 0.00 | 0.08 | 0.08 | 99 | 1010.9 |
| 20260502062546 | 7 | 2 | 0.0 | 0.0 | 0.00 | 0.08 | 0.08 | 99 | 1010.9 |
| 20260502062044 | 7 | 1 | 0.0 | 0.0 | 0.00 | 0.08 | 0.08 | 99 | 1010.7 |
| 20260502061542 | 7 | 51 | 0.0 | 0.0 | 0.00 | 0.08 | 0.08 | 99 | 1011.0 |
| 20260502061039 | 7 | 351 | 0.0 | 0.0 | 0.00 | 0.08 | 0.08 | 99 | 1011.0 |
| 20260502060534 | 7 | 352 | 0.0 | 0.0 | 0.00 | 0.08 | 0.08 | 99 | 1011.1 |
| 20260502060031 | 7 | 345 | 0.0 | 0.0 | 0.00 | 0.08 | 0.08 | 99 | 1011.3 |
| 20260502055528 | 7 | 353 | 0.0 | 0.0 | 0.00 | 0.08 | 0.08 | 99 | 1011.4 |
| 20260502055027 | 7 | 352 | 0.0 | 0.0 | 0.00 | 0.08 | 0.08 | 99 | 1011.2 |
| 20260502054525 | 7 | 3 | 0.0 | 0.0 | 0.00 | 0.08 | 0.08 | 99 | 1011.1 |
| 20260502054022 | 7 | 7 | 0.0 | 0.0 | 0.00 | 0.08 | 0.08 | 99 | 1011.1 |
| 20260502053519 | 7 | 358 | 0.0 | 0.0 | 0.00 | 0.08 | 0.08 | 98 | 1011.2 |
| 20260502053017 | 7 | 1 | 0.0 | 0.0 | 0.00 | 0.08 | 0.08 | 98 | 1011.3 |
| 20260502052515 | 7 | 2 | 0.0 | 0.0 | 0.00 | 0.08 | 0.08 | 98 | 1011.4 |
| 20260502052013 | 7 | 353 | 0.0 | 0.0 | 0.00 | 0.08 | 0.08 | 97 | 1011.4 |